| time (UTC) | temp F | wind direction | speed MPH | gust MPH | rain 1hr in | rain 24hr in | rain mn in | humidity % | barometer mb |
| 20260509043002 | 58 | 204 | 0.0 | 0.0 | 0.00 | 0.00 | 0.00 | 89 | 1013.5 |
| 20260509041507 | 58 | 204 | 0.0 | 0.0 | 0.00 | 0.00 | 0.00 | 89 | 1013.6 |
| 20260509040057 | 58 | 204 | 0.0 | 0.0 | 0.00 | 0.00 | 0.00 | 88 | 1013.6 |
| 20260509034601 | 59 | 204 | 0.0 | 0.0 | 0.00 | 0.00 | 0.00 | 87 | 1013.9 |
| 20260509033104 | 59 | 204 | 0.0 | 0.0 | 0.00 | 0.00 | 0.00 | 87 | 1014.3 |
| 20260509031506 | 59 | 204 | 0.0 | 0.0 | 0.00 | 0.00 | 0.00 | 86 | 1014.2 |
| 20260509030053 | 60 | 204 | 0.0 | 0.0 | 0.00 | 0.00 | 0.00 | 85 | 1014.3 |
| 20260509024600 | 60 | 204 | 0.0 | 0.0 | 0.00 | 0.00 | 0.00 | 84 | 1014.6 |
| 20260509023111 | 61 | 204 | 0.0 | 0.0 | 0.00 | 0.00 | 0.00 | 84 | 1014.3 |
| 20260509021502 | 61 | 204 | 0.0 | 0.0 | 0.00 | 0.00 | 0.00 | 82 | 1014.2 |
| 20260509020056 | 62 | 204 | 0.0 | 0.0 | 0.00 | 0.00 | 0.00 | 81 | 1013.9 |
| 20260509014558 | 62 | 204 | 0.0 | 0.0 | 0.00 | 0.00 | 0.00 | 79 | 1014.0 |
| 20260509013109 | 63 | 204 | 0.0 | 2.0 | 0.00 | 0.00 | 0.00 | 79 | 1013.9 |
| 20260509011502 | 63 | 163 | 0.0 | 0.0 | 0.00 | 0.00 | 0.00 | 79 | 1014.0 |
| 20260509010054 | 63 | 163 | 0.0 | 0.0 | 0.00 | 0.00 | 0.00 | 79 | 1013.8 |
| 20260509004559 | 63 | 163 | 0.0 | 0.0 | 0.00 | 0.00 | 0.00 | 78 | 1013.6 |
| 20260509003102 | 64 | 163 | 0.0 | 0.0 | 0.00 | 0.00 | 0.00 | 77 | 1013.5 |
| 20260509001502 | 65 | 163 | 0.0 | 0.0 | 0.00 | 0.00 | 0.00 | 76 | 1013.7 |
| 20260509000054 | 66 | 244 | 0.0 | 0.0 | 0.00 | 0.00 | 0.00 | 75 | 1013.6 |
| 20260508234559 | 66 | 244 | 0.0 | 0.0 | 0.00 | 0.00 | 0.00 | 72 | 1013.9 |
| 20260508233129 | 67 | 244 | 0.0 | 0.0 | 0.00 | 0.00 | 0.00 | 71 | 1013.6 |
| 20260508231504 | 67 | 244 | 0.0 | 0.0 | 0.00 | 0.00 | 0.00 | 71 | 1013.2 |
| 20260508230059 | 68 | 244 | 0.0 | 1.0 | 0.00 | 0.00 | 0.00 | 69 | 1013.4 |
| 20260508224602 | 68 | 244 | 0.0 | 0.0 | 0.00 | 0.00 | 0.00 | 68 | 1013.4 |
| 20260508223002 | 69 | 244 | 0.0 | 0.0 | 0.00 | 0.00 | 0.00 | 67 | 1013.5 |
| 20260508221507 | 70 | 244 | 0.0 | 0.0 | 0.00 | 0.00 | 0.00 | 65 | 1013.5 |
| 20260508220054 | 70 | 244 | 0.0 | 0.0 | 0.00 | 0.00 | 0.00 | 62 | 1013.3 |
| 20260508214559 | 70 | 244 | 0.0 | 0.0 | 0.00 | 0.00 | 0.00 | 61 | 1013.1 |
| 20260508213103 | 70 | 244 | 0.0 | 0.0 | 0.00 | 0.00 | 0.00 | 60 | 1013.4 |
| 20260508211514 | 71 | 244 | 0.0 | 0.0 | 0.00 | 0.00 | 0.00 | 60 | 1013.2 |
| 20260508210057 | 71 | 244 | 0.0 | 0.0 | 0.00 | 0.00 | 0.00 | 58 | 1013.4 |
| 20260508204601 | 72 | 243 | 0.0 | 0.0 | 0.00 | 0.00 | 0.00 | 56 | 1013.5 |
| 20260508203105 | 72 | 243 | 0.0 | 2.0 | 0.00 | 0.00 | 0.00 | 57 | 1013.4 |
| 20260508201506 | 72 | 243 | 0.0 | 2.0 | 0.00 | 0.00 | 0.00 | 56 | 1013.4 |
| 20260508200112 | 72 | 246 | 0.0 | 3.0 | 0.00 | 0.00 | 0.00 | 54 | 1013.7 |
| 20260508194603 | 72 | 267 | 0.0 | 2.0 | 0.00 | 0.00 | 0.00 | 56 | 1014.0 |
| 20260508193003 | 72 | 213 | 0.0 | 3.0 | 0.00 | 0.00 | 0.00 | 54 | 1014.2 |
| 20260508191509 | 72 | 161 | 0.0 | 3.0 | 0.00 | 0.00 | 0.00 | 55 | 1014.4 |
| 20260508190104 | 72 | 322 | 0.0 | 2.0 | 0.00 | 0.00 | 0.00 | 55 | 1014.7 |
| 20260508184501 | 72 | 226 | 0.0 | 3.0 | 0.00 | 0.00 | 0.00 | 54 | 1014.8 |
| 20260508183004 | 72 | 237 | 1.0 | 5.0 | 0.00 | 0.00 | 0.00 | 58 | 1015.0 |
| 20260508181509 | 70 | 342 | 0.0 | 4.0 | 0.00 | 0.00 | 0.00 | 56 | 1015.4 |
| 20260508180059 | 71 | 211 | 1.0 | 4.0 | 0.00 | 0.00 | 0.00 | 57 | 1015.4 |
| 20260508174606 | 71 | 350 | 0.0 | 5.0 | 0.00 | 0.00 | 0.00 | 59 | 1015.8 |
| 20260508173004 | 70 | 232 | 0.0 | 3.0 | 0.00 | 0.00 | 0.00 | 58 | 1015.8 |
| 20260508171509 | 70 | 232 | 0.0 | 4.0 | 0.00 | 0.00 | 0.00 | 59 | 1016.0 |
| 20260508164503 | 69 | 198 | 0.0 | 2.0 | 0.00 | 0.00 | 0.00 | 62 | 1016.6 |
| 20260508163013 | 70 | 251 | 0.0 | 2.0 | 0.00 | 0.00 | 0.00 | 60 | 1016.8 |
| 20260508161512 | 68 | 36 | 0.0 | 0.0 | 0.00 | 0.00 | 0.00 | 63 | 1017.1 |
| 20260508160104 | 67 | 36 | 0.0 | 4.0 | 0.00 | 0.00 | 0.00 | 62 | 1017.3 |
| 20260508154503 | 67 | 225 | 0.0 | 3.0 | 0.00 | 0.04 | 0.00 | 66 | 1017.4 |
| 20260508153006 | 67 | 228 | 0.0 | 2.0 | 0.00 | 0.04 | 0.00 | 65 | 1017.4 |
| 20260508151514 | 66 | 196 | 0.0 | 4.0 | 0.00 | 0.04 | 0.00 | 69 | 1017.7 |
| 20260508150101 | 65 | 146 | 0.0 | 2.0 | 0.00 | 0.04 | 0.00 | 71 | 1017.6 |
| 20260508144505 | 64 | 217 | 0.0 | 0.0 | 0.00 | 0.05 | 0.00 | 76 | 1017.5 |
| 20260508143008 | 64 | 232 | 0.0 | 4.0 | 0.00 | 0.05 | 0.00 | 78 | 1017.4 |
| 20260508141517 | 63 | 248 | 0.0 | 0.0 | 0.00 | 0.05 | 0.00 | 84 | 1017.4 |
| 20260508134504 | 61 | 250 | 0.0 | 2.0 | 0.00 | 0.25 | 0.00 | 85 | 1017.8 |
| 20260508133009 | 61 | 5 | 0.0 | 0.0 | 0.00 | 0.25 | 0.00 | 86 | 1017.8 |
| 20260508131512 | 60 | 5 | 0.0 | 0.0 | 0.00 | 0.25 | 0.00 | 88 | 1017.6 |
| 20260508124501 | 58 | 5 | 0.0 | 0.0 | 0.00 | 0.46 | 0.00 | 93 | 1017.5 |
| 20260508123011 | 55 | 5 | 0.0 | 0.0 | 0.00 | 0.46 | 0.00 | 96 | 1017.3 |
| 20260508121515 | 52 | 5 | 0.0 | 0.0 | 0.00 | 0.46 | 0.00 | 95 | 1017.0 |
| 20260508120101 | 51 | 5 | 0.0 | 0.0 | 0.00 | 0.46 | 0.00 | 95 | 1016.6 |
| 20260508114502 | 50 | 5 | 0.0 | 0.0 | 0.00 | 0.47 | 0.00 | 95 | 1016.3 |
| 20260508113006 | 49 | 5 | 0.0 | 0.0 | 0.00 | 0.47 | 0.00 | 94 | 1016.2 |
| 20260508111510 | 49 | 5 | 0.0 | 0.0 | 0.00 | 0.47 | 0.00 | 94 | 1015.9 |
| 20260508110115 | 49 | 5 | 0.0 | 0.0 | 0.00 | 0.47 | 0.00 | 94 | 1015.8 |
| 20260508104504 | 48 | 5 | 0.0 | 0.0 | 0.00 | 0.59 | 0.00 | 94 | 1015.6 |
| 20260508103008 | 49 | 5 | 0.0 | 0.0 | 0.00 | 0.59 | 0.00 | 93 | 1015.1 |
| 20260508101513 | 49 | 5 | 0.0 | 0.0 | 0.00 | 0.59 | 0.00 | 93 | 1015.2 |
| 20260508100113 | 49 | 5 | 0.0 | 0.0 | 0.00 | 0.59 | 0.00 | 93 | 1014.9 |
| 20260508094502 | 50 | 5 | 0.0 | 0.0 | 0.00 | 0.63 | 0.00 | 93 | 1014.7 |
| 20260508093009 | 50 | 5 | 0.0 | 0.0 | 0.00 | 0.63 | 0.00 | 93 | 1014.3 |
| 20260508091509 | 51 | 5 | 0.0 | 0.0 | 0.00 | 0.63 | 0.00 | 93 | 1014.2 |
| 20260508090115 | 51 | 5 | 0.0 | 0.0 | 0.00 | 0.63 | 0.00 | 93 | 1014.2 |
| 20260508084502 | 52 | 5 | 0.0 | 0.0 | 0.00 | 0.65 | 0.00 | 93 | 1013.9 |
| 20260508083008 | 52 | 5 | 0.0 | 0.0 | 0.00 | 0.65 | 0.00 | 93 | 1013.9 |
| 20260508081507 | 52 | 5 | 0.0 | 0.0 | 0.00 | 0.65 | 0.00 | 92 | 1014.0 |
| 20260508080056 | 53 | 5 | 0.0 | 0.0 | 0.00 | 0.65 | 0.00 | 92 | 1013.7 |
| 20260508074601 | 53 | 5 | 0.0 | 0.0 | 0.00 | 0.67 | 0.00 | 92 | 1013.7 |
| 20260508073112 | 53 | 5 | 0.0 | 0.0 | 0.00 | 0.67 | 0.00 | 92 | 1014.0 |
| 20260508071607 | 53 | 5 | 0.0 | 0.0 | 0.00 | 0.67 | 0.00 | 92 | 1013.7 |
| 20260508070051 | 53 | 5 | 0.0 | 0.0 | 0.00 | 0.67 | 0.00 | 91 | 1013.8 |
| 20260508064604 | 54 | 5 | 0.0 | 0.0 | 0.00 | 0.85 | 0.00 | 91 | 1013.8 |
| 20260508063110 | 54 | 5 | 0.0 | 0.0 | 0.00 | 0.85 | 0.00 | 91 | 1013.9 |
| 20260508061608 | 55 | 5 | 0.0 | 0.0 | 0.00 | 0.85 | 0.00 | 90 | 1014.0 |
| 20260508060059 | 55 | 5 | 0.0 | 0.0 | 0.00 | 0.85 | 0.00 | 90 | 1013.8 |
| 20260508054545 | 55 | 5 | 0.0 | 0.0 | 0.00 | 1.02 | 0.00 | 90 | 1013.7 |
| 20260508053049 | 55 | 5 | 0.0 | 0.0 | 0.00 | 1.02 | 0.00 | 90 | 1014.1 |
| 20260508051608 | 55 | 5 | 0.0 | 0.0 | 0.00 | 1.02 | 0.00 | 89 | 1013.9 |
| 20260508050040 | 55 | 5 | 0.0 | 0.0 | 0.00 | 1.02 | 0.00 | 89 | 1013.8 |
| 20260508044548 | 56 | 5 | 0.0 | 0.0 | 0.00 | 1.02 | 1.02 | 88 | 1013.9 |